Weather History for St. Johnsbury, VT

Change the Weather History Date:

Wednesday, May 8, 2013

  Actual Average Record
Temperature  
Mean Temperature 62 °F 54 °F  
Max Temperature 79 °F 66 °F 90 °F (1936)
Min Temperature 45 °F 41 °F 22 °F (1950)
Degree Days  
Heating Degree Days 3    
Cooling Degree Days 0 0  
Month to date cooling degree days 0 0  
Year to date cooling degree days 0 1  
Growing Degree Days 12 (Base 50)    
Moisture  
Dew Point 48 °F    
Average Humidity 59    
Maximum Humidity 89    
Minimum Humidity 28    
Precipitation  
Precipitation 0.00 in 0.10 in 0.83 in (2010)
Month to date precipitation 0.00 0.83  
Year to date precipitation 7.74 10.88  
Sea Level Pressure  
Sea Level Pressure 30.10 in    
Wind  
Wind Speed - (North)    
Max Wind Speed -    
Max Gust Speed -    
T = Trace of Precipitation, MM = Missing Value Source: NWS Daily Summary

Daily Weather History Graph

Daily Weather History Graph

Search for Another Location

Airport:

Trip Planner

Search our weather history database for the weather conditions in past years. The results will help you decide how hot, cold, wet, or windy it might be!

Date:

Astronomy

May. 08, 2013 Rise Set
Actual Time 5:28 AM EDT 8:00 PM EDT
Civil Twilight 4:56 AM EDT 8:33 PM EDT
Nautical Twilight 4:14 AM EDT 9:15 PM EDT
Astronomical Twilight 3:28 AM EDT 10:02 PM EDT
Moon 4:38 AM EDT (5/8) 6:54 PM EDT (5/8)
Length of Visible Light 15h 37m
Length of Day
14h 32m
Waning Crescent, 2% of the Moon is Illuminated
May 8
Waning Crescent
May 9
New
May 18
First Quarter
May 25
Full
May 31
Last Quarter

Hourly Weather History & Observations

Time (EDT) Temp. Dew Point Humidity Pressure Visibility Wind Dir Wind Speed Gust Speed Precip Events Conditions
12:54 AM 52.0 °F 42.1 °F 69% 30.11 in - North - - N/A   Unknown
1:54 AM 48.0 °F 42.1 °F 80% 30.11 in - North - - N/A   Unknown
2:54 AM 48.0 °F 39.9 °F 74% 30.11 in - North - - N/A   Unknown
3:54 AM 46.9 °F 41.0 °F 80% 30.12 in - North - - N/A   Unknown
4:54 AM 46.0 °F 41.0 °F 83% 30.13 in - North - - N/A   Unknown
5:54 AM 45.0 °F 41.0 °F 86% 30.14 in - North - - N/A   Unknown
6:54 AM 46.9 °F 41.0 °F 80% 30.15 in - North - - N/A   Unknown
7:54 AM 52.0 °F 42.1 °F 69% 30.17 in - North - - N/A   Unknown
8:54 AM 60.1 °F 46.0 °F 60% 30.16 in - North - - N/A   Unknown
9:54 AM 68.0 °F 51.1 °F 55% 30.15 in - North - - N/A   Unknown
10:54 AM 73.0 °F 50.0 °F 44% 30.12 in - North - - N/A   Unknown
11:54 AM 73.0 °F 50.0 °F 44% 30.11 in - North - - N/A   Unknown
12:54 PM 77.0 °F 44.1 °F 31% 30.09 in - North - - N/A   Unknown
1:54 PM 79.0 °F 42.1 °F 27% 30.08 in - North - - N/A   Unknown
2:54 PM 72.0 °F 52.0 °F 49% 30.09 in - North - - N/A   Unknown
3:54 PM 72.0 °F 53.1 °F 51% 30.06 in - North - - N/A   Unknown
4:54 PM 72.0 °F 48.9 °F 44% 30.06 in - North - - N/A   Unknown
5:54 PM 72.0 °F 54.0 °F 53% 30.05 in - North - - N/A   Unknown
6:54 PM 71.1 °F 50.0 °F 47% 30.05 in - North - - N/A   Unknown
7:54 PM 68.0 °F 52.0 °F 56% 30.06 in - North - - N/A   Unknown
8:54 PM 64.9 °F 54.0 °F 68% 30.06 in - North - - N/A   Unknown
9:54 PM 62.1 °F 57.0 °F 84% 30.06 in - North - - N/A   Unknown
10:54 PM 62.1 °F 57.0 °F 84% 30.04 in - North - - N/A   Unknown
11:54 PM 62.1 °F 55.0 °F 78% 30.02 in - North - - N/A   Unknown